Wetbulb
57.79 57.62 57.47 57.45 57.62 58.18 58.39 58.56 58.67 58.94 58.94 59.05 58.86 58.75 58.96 59.26 58.70 57.25 52.28 60.44 62.32 71.82 71.68 63.03 63.29 64.98 68.75 68.17 70.14 70.01 63.21 59.78 61.25 61.58 62.75 66.41 64.08 66.84 68.20 66.38 67.91 69.63 66.61 68.38 70.11
57.32 57.11 57.13 57.12 57.41 57.81 57.89 58.28 58.39 58.58 58.62 58.51 58.64 58.75 58.86 59.29 56.68 54.81 63.95 69.60 71.60 71.57 63.41 63.32 64.03 66.79 65.14 66.64 68.36 66.17 62.87 61.63 65.34 65.97 65.39 65.51 64.78 65.77 65.56 65.64 66.09 65.59 67.93 69.19 69.74
56.79 56.95 56.89 56.93 57.51 57.36 57.47 57.48 57.99 58.04 57.89 58.04 58.40 58.55 58.73 59.69 56.80 56.71 69.29 69.85 70.51 70.96 67.47 68.04 67.89 65.17 64.30 66.28 67.32 65.29 62.15 64.83 65.44 67.47 68.47 65.97 65.06 66.90 65.31 63.94 64.68 63.86 65.99 67.75 68.33
56.59 56.48 56.68 56.69 57.16 57.14 57.06 57.19 57.20 57.32 57.30 57.53 58.19 58.62 58.94 58.89 53.38 62.54 69.98 69.34 69.03 63.01 67.83 66.09 63.53 62.66 62.56 62.82 67.65 63.29 66.78 66.47 66.38 68.14 66.86 65.37 66.60 65.07 65.25 65.57 68.79 67.25 67.48 67.62 67.39
56.28 56.47 56.30 56.49 56.60 56.66 56.83 56.81 56.86 56.61 56.84 57.04 57.91 58.60 58.53 55.74 53.77 66.65 68.99 68.28 58.71 61.28 65.89 63.82 59.84 62.15 60.65 63.45 66.81 63.99 65.49 66.65 67.85 67.27 67.44 67.34 65.08 64.50 65.76 68.15 69.68 67.93 67.71 67.18 67.35
56.47 56.75 56.86 56.62 56.62 56.62 56.66 56.61 56.21 56.37 56.50 56.92 57.72 58.47 56.21 52.03 63.52 66.50 62.53 58.73 57.31 61.17 65.54 63.63 59.66 62.62 62.80 64.09 65.01 63.88 65.13 65.41 66.70 66.79 67.71 65.41 64.42 66.15 66.49 69.25 68.13 67.18 66.82 67.21 67.29
55.94 55.99 56.13 56.28 56.77 56.64 56.47 55.92 55.76 55.84 56.87 57.30 57.77 58.63 57.01 55.46 64.12 64.58 62.02 58.81 59.09 63.05 62.86 62.81 61.69 61.01 61.57 59.96 66.08 65.39 63.39 64.35 64.09 67.05 65.91 66.45 62.22 63.30 67.43 68.21 67.36 66.34 66.70 66.69 67.25
56.06 56.30 56.15 56.30 56.36 56.01 55.52 55.13 55.29 56.93 58.03 57.96 57.94 59.05 55.86 61.74 65.08 62.30 61.67 58.80 59.93 63.78 64.33 63.37 62.69 59.71 59.36 62.19 62.40 63.41 62.78 58.27 62.74 66.68 66.45 65.36 58.63 64.62 67.27 66.52 65.77 65.56 66.23 66.33 66.95
56.43 56.71 55.98 55.98 55.78 55.16 54.77 54.99 56.08 59.82 60.56 58.61 57.50 58.45 54.46 65.34 60.36 62.28 62.89 58.65 60.53 63.66 63.26 62.18 60.17 57.19 57.88 57.03 57.43 60.84 56.24 58.34 60.47 66.36 65.79 64.68 59.81 64.26 66.55 65.68 64.99 65.17 65.52 65.72 66.68
56.91 56.65 56.14 55.88 55.55 55.02 54.65 54.53 57.31 57.71 58.77 59.72 61.17 56.21 57.79 57.86 59.25 62.19 63.62 61.34 59.45 60.20 58.20 57.33 56.18 54.00 54.76 55.66 51.39 54.98 56.97 58.48 58.87 61.30 62.47 62.08 61.96 64.03 65.87 65.19 64.54 64.99 65.03 65.52 66.10
56.62 56.27 55.99 55.73 55.12 54.42 54.36 59.17 57.37 57.75 57.61 54.40 55.13 56.20 58.36 60.46 61.51 60.47 61.75 59.07 58.58 57.36 52.76 55.24 50.79 49.63 52.99 56.46 58.46 58.41 57.84 58.17 58.95 64.25 63.24 61.91 61.35 62.60 64.97 64.43 64.09 64.34 64.92 65.59 66.19
56.05 56.08 55.69 55.40 54.59 53.94 55.24 57.65 55.99 57.34 52.50 56.50 56.49 55.24 58.76 59.92 55.74 57.54 60.59 55.23 54.59 51.42 54.13 51.68 48.14 53.67 55.37 56.11 56.43 57.30 56.14 57.08 58.28 60.22 58.93 61.71 60.64 63.79 64.68 64.00 64.17 64.49 65.02 65.75 65.96
56.02 55.97 55.28 54.42 53.45 54.14 58.32 57.56 59.19 58.43 51.72 55.14 56.01 54.20 57.70 59.19 55.31 55.57 57.35 55.86 53.16 51.59 51.94 50.25 51.17 53.74 53.67 53.29 52.96 54.98 55.41 57.89 57.18 58.85 58.42 58.21 58.04 60.97 63.75 66.12 66.11 66.37 66.66 66.95 66.55
55.53 55.24 54.44 53.43 51.95 59.12 58.04 58.70 58.98 58.34 48.46 51.12 52.45 53.47 56.89 58.39 54.04 58.84 59.64 55.68 53.56 50.52 51.96 51.74 54.07 52.37 52.49 51.58 53.30 51.94 58.39 58.45 57.13 53.68 53.14 61.08 52.77 59.43 62.30 62.69 64.81 65.88 65.90 66.28 67.40
55.63 54.51 53.69 52.64 56.74 55.20 57.70 58.92 58.76 56.72 39.94 50.57 51.15 57.74 56.17 53.81 54.78 55.40 59.38 55.75 53.04 51.23 52.12 50.50 51.93 51.58 51.16 51.82 54.89 54.15 59.46 58.14 57.99 55.47 54.39 55.17 55.21 54.90 53.69 61.01 62.88 65.41 66.48 66.25 66.82
55.36 54.75 53.59 56.51 56.38 59.30 60.46 59.83 57.21 45.86 39.69 47.21 51.13 51.36 51.86 52.90 53.18 55.72 55.58 58.15 57.87 53.25 52.63 52.51 55.21 54.09 53.76 54.75 57.45 58.23 56.47 57.91 57.33 55.23 49.64 53.68 53.32 54.79 53.26 55.63 63.19 65.73 66.67 67.39 68.44
54.13 53.17 53.22 59.72 57.50 61.66 60.18 56.83 46.39 41.50 51.41 47.37 48.14 50.36 50.41 49.56 51.41 53.10 52.20 52.59 51.69 49.06 48.15 51.26 51.89 54.01 55.13 53.16 56.38 55.60 53.63 49.61 47.81 47.60 46.85 55.08 52.95 55.51 56.61 58.22 58.67 65.52 66.82 68.26 69.14
52.32 51.48 55.44 59.11 62.40 61.34 59.18 52.40 41.00 45.31 45.64 51.39 49.12 49.35 47.43 49.97 49.96 52.27 51.01 50.66 53.75 53.24 50.02 46.57 46.76 51.54 55.16 54.07 53.37 53.58 54.25 49.60 44.02 45.13 47.63 53.75 51.46 53.61 57.45 63.14 65.06 66.94 67.16 65.62 65.18
51.16 59.86 59.47 62.29 63.11 60.68 54.86 45.06 41.58 43.81 49.56 48.55 48.12 45.88 46.08 47.57 49.79 50.71 50.55 50.24 52.02 54.42 47.89 47.76 48.38 53.84 56.18 57.53 56.83 53.08 51.30 55.76 51.10 51.65 48.54 51.97 55.11 58.58 62.15 61.85 63.29 64.26 66.36 67.18 66.49
57.40 59.41 60.51 60.71 61.38 59.18 51.44 42.86 48.34 50.66 49.58 49.19 44.74 45.75 43.03 46.45 47.18 49.42 49.11 52.33 51.01 53.87 54.60 52.00 46.62 53.49 54.43 55.09 56.17 54.39 55.99 50.06 51.67 45.29 44.35 49.76 51.59 53.35 58.34 58.67 60.43 61.36 61.83 64.53 66.75
57.46 56.10 60.28 62.11 59.68 55.83 45.00 45.71 49.12 50.51 50.81 49.24 46.81 45.13 46.30 45.90 47.97 45.20 47.99 50.93 52.08 52.21 53.71 52.67 50.69 49.21 51.75 51.00 50.78 52.10 51.18 52.71 52.60 50.70 46.26 46.10 49.42 59.55 59.52 59.72 59.43 60.73 62.31 63.26 63.72
58.50 52.83 59.60 58.71 51.97 52.35 45.73 50.23 47.55 49.25 50.62 49.33 50.37 48.19 46.64 47.81 47.39 47.21 45.75 49.14 51.90 52.22 49.75 53.26 50.52 46.86 47.99 51.52 53.52 53.98 52.87 52.93 48.40 48.90 50.93 49.22 48.71 59.01 60.73 60.73 60.70 60.08 61.34 62.95 62.29
56.18 53.90 58.87 58.01 47.25 47.30 50.15 48.89 50.53 49.62 49.94 48.85 48.03 49.61 50.18 47.06 45.29 46.89 48.92 50.31 51.30 51.37 49.81 51.55 49.24 45.55 46.20 48.96 51.26 50.08 52.07 52.83 52.94 52.96 49.87 45.51 48.80 59.52 61.10 60.25 60.11 59.50 59.89 61.06 61.96
56.61 50.97 53.46 55.75 53.77 50.30 48.84 47.81 47.30 49.56 49.98 50.94 50.50 49.81 48.76 47.18 49.23 47.47 47.77 49.57 51.10 50.54 53.31 54.68 48.68 47.46 42.22 46.48 49.80 47.72 50.05 51.96 51.37 48.13 49.69 49.11 52.47 55.67 57.47 57.78 58.43 59.35 59.25 59.81 60.76
56.38 49.93 53.57 49.07 49.58 50.33 50.42 48.84 46.50 46.54 49.52 51.29 49.30 50.05 48.51 46.06 46.60 47.02 48.97 49.10 50.35 50.29 51.75 50.33 45.58 48.12 49.42 48.79 49.19 49.07 48.83 50.03 49.14 50.65 48.56 51.83 52.72 55.91 56.86 57.46 58.30 59.43 60.45 60.42 60.42
53.95 52.48 53.72 51.90 50.97 49.81 47.36 47.47 46.95 47.26 49.02 46.95 48.32 48.67 49.84 47.00 48.90 46.45 48.42 49.04 47.67 51.13 49.83 50.89 45.68 48.34 46.42 47.65 47.70 47.01 48.45 48.79 49.24 49.73 51.90 52.03 51.49 57.34 58.49 59.83 59.11 59.07 58.99 58.84 59.38
58.40 57.85 55.52 50.41 50.81 48.82 47.28 47.30 46.50 48.20 47.93 49.63 49.03 48.67 48.95 49.85 51.89 52.80 53.31 53.16 53.11 50.74 49.76 49.19 47.16 45.86 43.27 47.36 46.19 42.80 46.65 47.11 48.35 50.74 54.26 50.74 52.34 56.50 57.22 57.40 57.93 58.45 58.72 58.39 58.44
MSLP
1016.98 1016.70 1016.43 1016.09 1015.76 1015.43 1015.13 1014.91 1014.71 1014.46 1014.23 1013.91 1013.54 1013.31 1013.03 1012.71 1012.38 1011.90 1009.65 1007.34 1007.27 1007.91 1007.89 1007.13 1007.12 1006.37 1005.63 1005.18 1005.39 1006.04 1006.31 1005.42 1005.07 1005.82 1007.33 1008.29 1009.01 1010.71 1010.18 1009.23 1008.15 1007.19 1008.21 1008.77 1009.32
1016.86 1016.58 1016.30 1016.05 1015.75 1015.34 1015.06 1014.80 1014.58 1014.37 1014.18 1013.93 1013.54 1013.16 1012.89 1012.62 1011.40 1009.37 1007.16 1007.29 1007.27 1007.60 1007.66 1006.25 1005.77 1005.20 1004.95 1004.54 1004.71 1005.37 1005.64 1004.63 1004.70 1005.27 1006.57 1008.16 1008.87 1009.52 1010.20 1009.50 1008.05 1007.67 1008.52 1009.26 1009.32
1016.70 1016.44 1016.16 1015.93 1015.58 1015.33 1014.93 1014.65 1014.37 1014.21 1014.07 1013.81 1013.52 1013.08 1012.75 1012.46 1010.15 1005.85 1005.26 1006.75 1007.25 1007.48 1006.85 1005.52 1004.88 1004.75 1004.08 1003.60 1004.14 1005.66 1005.06 1004.29 1004.76 1005.13 1006.30 1007.83 1009.19 1009.68 1010.13 1009.46 1008.12 1008.05 1008.65 1009.31 1009.48
1016.59 1016.31 1016.01 1015.71 1015.49 1015.15 1014.90 1014.48 1014.23 1014.02 1013.87 1013.71 1013.39 1013.12 1012.76 1011.75 1007.71 1005.98 1006.38 1006.53 1007.09 1007.21 1006.81 1005.13 1004.43 1004.05 1003.28 1002.78 1003.44 1004.03 1004.24 1003.47 1004.08 1004.79 1005.72 1007.14 1008.75 1009.47 1010.06 1009.97 1008.11 1008.55 1009.10 1009.32 1009.53
1016.50 1016.25 1015.78 1015.46 1015.16 1014.94 1014.63 1014.30 1014.00 1013.86 1013.68 1013.48 1013.24 1013.16 1012.46 1009.64 1006.17 1006.15 1006.60 1006.95 1007.04 1007.22 1006.31 1004.73 1003.89 1003.41 1002.63 1001.93 1003.06 1003.61 1003.53 1003.46 1003.21 1004.41 1005.83 1006.93 1008.16 1009.11 1009.96 1009.95 1008.85 1008.78 1009.26 1009.39 1009.49
1016.25 1015.85 1015.57 1015.17 1014.91 1014.53 1014.22 1013.97 1013.71 1013.58 1013.38 1013.19 1013.08 1013.12 1011.67 1007.36 1004.25 1005.57 1006.03 1006.57 1006.19 1006.53 1005.67 1004.27 1003.45 1002.97 1002.00 1001.83 1002.77 1003.99 1003.56 1002.57 1002.47 1003.93 1005.28 1006.65 1007.92 1008.69 1009.83 1009.62 1009.19 1009.08 1009.32 1009.41 1009.44
1016.02 1015.69 1015.24 1014.92 1014.55 1014.22 1013.88 1013.57 1013.36 1013.23 1012.93 1012.89 1012.87 1012.53 1009.67 1005.21 1004.21 1004.89 1005.49 1005.75 1005.70 1005.73 1004.70 1003.83 1003.24 1002.73 1002.31 1001.48 1001.39 1003.16 1002.94 1002.06 1002.14 1003.35 1005.01 1006.74 1007.95 1008.95 1009.41 1009.47 1009.25 1009.15 1009.33 1009.45 1009.42
1015.75 1015.35 1015.02 1014.57 1014.18 1013.89 1013.55 1013.21 1012.97 1012.69 1012.50 1012.50 1012.63 1011.67 1007.31 1004.08 1004.30 1004.46 1004.94 1005.23 1005.27 1005.17 1004.13 1003.68 1003.14 1002.71 1002.17 1001.51 1001.27 1001.59 1001.89 1001.85 1001.64 1002.69 1004.44 1005.68 1008.15 1009.25 1009.58 1009.40 1009.32 1009.29 1009.35 1009.42 1009.53
1015.21 1014.91 1014.47 1014.23 1013.89 1013.49 1013.22 1012.93 1012.53 1011.82 1011.58 1012.29 1011.91 1010.19 1005.48 1004.57 1004.37 1003.95 1004.11 1004.15 1004.55 1004.46 1003.94 1003.53 1003.58 1003.34 1002.53 1001.68 1001.14 1001.07 1001.25 1001.22 1001.69 1002.36 1003.77 1005.30 1007.86 1009.66 1010.07 1009.61 1009.32 1009.35 1009.27 1009.39 1009.74
1014.87 1014.30 1014.09 1013.78 1013.59 1013.31 1012.97 1012.69 1011.88 1011.93 1011.61 1011.15 1009.64 1008.37 1004.81 1003.51 1003.52 1003.47 1003.60 1003.61 1003.95 1003.95 1003.97 1003.83 1004.18 1003.44 1002.27 1001.30 1000.11 1000.09 1000.15 1001.26 1002.51 1004.08 1004.37 1005.82 1007.27 1009.13 1009.95 1009.53 1009.41 1009.32 1009.39 1009.50 1009.91
1014.87 1014.15 1013.69 1013.45 1013.33 1013.24 1012.74 1011.57 1011.36 1010.20 1009.05 1006.62 1005.17 1004.10 1002.79 1002.68 1003.10 1003.40 1003.57 1003.74 1003.81 1003.69 1003.63 1004.05 1003.66 1002.20 1001.21 1000.73 999.89 999.31 999.43 1000.69 1002.46 1003.20 1004.27 1005.94 1007.74 1008.92 1009.42 1009.45 1009.47 1009.64 1009.69 1009.74 1010.06
1014.38 1014.06 1013.49 1013.27 1012.93 1012.96 1012.64 1009.69 1007.03 1006.31 1005.76 1005.35 1004.36 1003.41 1002.16 1002.29 1002.93 1003.16 1003.37 1003.61 1003.50 1003.47 1003.63 1003.27 1002.33 1001.37 1000.88 1000.17 999.82 999.08 999.03 1001.45 1003.22 1003.64 1006.24 1006.11 1007.72 1008.47 1009.40 1009.78 1009.92 1009.88 1009.83 1010.05 1010.20
1014.21 1013.79 1013.43 1013.16 1012.80 1012.31 1009.87 1007.14 1006.43 1005.61 1004.84 1002.87 1003.20 1002.43 1002.06 1002.54 1002.48 1002.60 1003.27 1003.24 1003.16 1003.04 1002.72 1001.72 1001.14 1000.89 1000.27 999.67 999.34 998.89 998.73 1000.16 1001.35 1002.92 1005.59 1007.30 1006.98 1008.33 1009.54 1009.43 1009.83 1009.87 1009.95 1010.11 1010.21
1013.96 1013.57 1013.38 1012.99 1012.90 1008.97 1007.29 1006.38 1005.83 1005.30 1004.07 1001.91 1002.21 1002.14 1002.24 1002.32 1001.85 1002.09 1002.99 1002.93 1002.54 1002.49 1001.99 1001.30 1000.33 1000.09 999.61 999.11 998.84 998.19 998.46 999.67 1001.70 1002.56 1002.77 1003.45 1006.19 1008.12 1008.91 1009.26 1009.47 1009.75 1009.88 1010.13 1010.04
1013.71 1013.56 1013.30 1013.37 1011.33 1007.90 1006.27 1005.93 1005.79 1005.25 1002.67 1001.79 1001.35 1000.99 1001.55 1002.22 1001.61 1001.76 1002.65 1002.46 1001.75 1001.69 1001.57 1000.65 999.95 999.41 999.13 998.88 998.58 998.11 998.09 999.84 1000.24 1000.25 1000.42 1001.42 1004.10 1008.99 1009.55 1009.16 1009.27 1009.65 1009.73 1009.91 1009.97
1013.17 1012.97 1012.75 1011.73 1010.99 1007.63 1005.92 1005.77 1005.63 1005.06 1002.29 1001.23 1001.35 1001.24 1001.46 1001.75 1001.23 1001.44 1002.41 1002.47 1001.58 1001.13 1000.87 1000.22 1000.03 999.37 999.21 999.13 998.74 998.44 998.16 998.28 999.51 998.95 999.59 1002.35 1003.93 1008.01 1010.15 1010.93 1008.89 1008.90 1009.39 1009.63 1009.47
1012.89 1012.47 1012.44 1009.81 1007.33 1006.05 1005.97 1005.65 1005.22 1004.49 1003.69 1002.34 1001.39 1001.55 1001.41 1001.46 1001.03 1001.63 1002.29 1002.17 1001.46 1000.89 1000.43 1000.42 999.39 999.52 999.76 999.52 999.03 998.80 998.67 998.29 998.86 998.88 999.31 1000.58 1002.92 1007.61 1010.24 1011.07 1011.48 1008.51 1008.99 1009.54 1009.87
1012.28 1012.09 1009.96 1008.83 1006.85 1005.89 1006.01 1005.80 1006.69 1007.50 1006.24 1004.81 1002.28 1001.63 1001.51 1001.38 1001.16 1001.66 1002.26 1001.80 1001.62 1000.68 1000.05 1000.13 999.47 999.53 999.56 999.14 998.82 998.81 998.51 997.68 998.03 998.57 999.17 1000.01 1003.33 1007.48 1008.60 1009.31 1007.97 1008.71 1009.43 1010.20 1010.92
1011.65 1009.73 1008.45 1006.37 1006.47 1006.01 1006.02 1006.77 1009.13 1009.05 1006.82 1004.21 1003.40 1002.87 1002.78 1002.72 1002.09 1001.92 1002.11 1001.74 1001.19 1000.61 1001.56 999.95 999.25 999.55 999.49 999.57 999.88 999.10 998.61 997.99 997.95 998.59 999.15 1001.21 1004.19 1006.19 1007.79 1008.82 1009.71 1009.97 1010.52 1011.31 1011.17
1010.95 1007.90 1005.62 1004.81 1004.93 1005.58 1007.25 1008.41 1007.66 1007.34 1006.34 1005.38 1004.32 1005.01 1004.65 1003.84 1003.19 1002.44 1002.18 1002.41 1001.79 1001.35 1001.95 1000.98 1000.14 999.41 1000.26 1000.68 1000.74 1000.23 999.71 999.15 998.41 998.69 999.30 1001.67 1003.79 1005.03 1007.13 1008.93 1010.13 1010.65 1011.10 1011.80 1011.65
1010.29 1006.75 1004.26 1004.25 1004.43 1005.89 1009.35 1008.41 1006.51 1006.97 1006.44 1006.07 1005.22 1005.69 1005.90 1005.35 1004.30 1004.91 1004.27 1003.63 1004.05 1002.90 1002.84 1001.91 1001.36 1000.95 1001.03 1000.81 1000.77 1000.71 1000.09 999.44 998.95 999.00 999.82 1003.15 1004.76 1005.36 1007.52 1009.95 1011.15 1011.76 1012.15 1012.71 1013.03
1008.65 1005.67 1004.15 1004.07 1004.25 1005.91 1007.85 1006.17 1006.35 1006.41 1006.62 1006.43 1006.53 1006.63 1006.62 1006.44 1005.91 1006.40 1006.66 1005.37 1005.37 1004.51 1003.67 1002.43 1001.57 1001.14 1000.92 1001.15 1001.22 1000.43 999.99 999.91 999.60 999.57 1001.22 1004.95 1008.03 1008.09 1009.18 1010.91 1012.09 1013.02 1012.93 1013.09 1013.73
1007.95 1004.79 1004.04 1003.85 1005.15 1005.38 1005.43 1006.04 1006.18 1006.22 1006.26 1006.21 1006.18 1006.95 1006.68 1006.79 1007.09 1007.70 1006.54 1006.39 1005.98 1004.92 1005.70 1004.48 1002.31 1001.48 1001.29 1001.65 1001.41 1000.91 1000.56 1000.04 999.87 999.95 1001.47 1004.35 1007.37 1009.25 1010.65 1011.35 1012.41 1013.40 1013.43 1013.67 1013.81
1008.39 1004.53 1004.07 1003.83 1004.11 1004.45 1005.21 1005.66 1006.29 1007.18 1006.93 1006.98 1006.61 1006.48 1006.91 1007.56 1007.15 1006.69 1006.14 1006.32 1006.24 1005.98 1006.09 1005.20 1003.87 1003.38 1003.25 1001.85 1001.05 1001.61 1001.09 1000.72 1000.86 1001.03 1001.83 1004.11 1007.29 1009.61 1010.97 1011.26 1012.81 1013.59 1013.89 1014.03 1014.27
1007.68 1005.88 1005.57 1004.95 1005.05 1005.44 1005.76 1006.20 1006.34 1006.72 1007.30 1007.40 1007.40 1006.81 1006.93 1007.08 1006.92 1006.67 1005.80 1006.06 1006.12 1006.26 1005.93 1005.51 1004.83 1004.35 1004.01 1003.46 1002.26 1001.45 1001.65 1001.31 1001.93 1002.33 1004.46 1006.27 1007.37 1009.03 1010.63 1011.73 1013.23 1013.73 1013.95 1014.10 1014.56
1007.80 1006.32 1005.93 1006.04 1006.20 1005.89 1006.75 1007.06 1007.14 1007.71 1007.95 1007.46 1007.38 1007.52 1007.53 1008.56 1008.01 1007.40 1006.20 1006.07 1005.97 1006.05 1006.11 1005.85 1005.67 1005.46 1005.06 1004.60 1003.84 1002.51 1002.36 1002.36 1002.68 1003.20 1004.62 1006.65 1008.49 1009.48 1010.69 1011.96 1013.17 1013.84 1014.31 1014.55 1014.81
1008.58 1007.49 1006.71 1006.78 1005.85 1005.99 1007.22 1007.75 1008.24 1008.80 1008.93 1008.95 1008.69 1008.26 1008.05 1008.87 1008.88 1007.98 1006.96 1006.69 1006.67 1006.70 1006.45 1006.53 1006.48 1006.41 1005.72 1005.22 1004.79 1004.39 1003.59 1003.95 1004.08 1003.96 1004.95 1006.75 1009.90 1010.03 1010.80 1011.59 1012.59 1013.67 1014.45 1014.89 1015.39
Wind_Speed
14 14 15 14 14 14 14 14 13 13 13 12 12 12 12 12 11 9 12 7 13 10 7 12 16 19 16 13 12 4 4 4 7 10 12 10 9 3 5 3 6 7 24 22 22
13 14 14 14 15 14 14 15 14 13 13 13 13 12 11 11 13 18 14 7 9 12 14 18 19 16 13 15 6 2 3 10 11 14 15 15 11 9 4 7 8 24 26 23 21
15 14 14 15 15 15 14 14 15 14 13 13 14 13 11 11 12 6 23 15 10 12 20 19 13 15 16 10 13 9 4 7 16 15 17 16 13 6 12 6 18 26 27 23 20
15 16 16 15 15 15 16 15 15 14 13 13 13 13 11 11 3 7 9 14 11 15 19 18 17 17 16 16 11 6 17 4 13 18 15 14 15 9 5 3 12 23 24 21 20
16 18 17 17 16 16 15 16 15 14 14 12 12 12 10 9 14 10 10 10 12 16 19 19 18 16 17 8 5 2 2 15 12 17 16 15 15 12 11 7 3 23 22 21 18
16 15 15 15 17 17 16 15 16 14 14 12 11 9 8 12 6 12 11 13 15 19 19 19 13 16 16 9 12 4 15 10 17 17 17 16 16 12 13 10 14 23 22 19 18
15 15 15 16 16 17 17 15 16 16 14 12 9 8 12 16 5 10 13 14 17 20 20 17 16 16 9 14 13 26 23 11 9 22 16 21 11 13 11 12 17 19 20 18 17
16 16 17 16 16 17 16 15 16 15 15 10 7 11 9 14 6 8 12 14 17 20 20 14 14 13 17 11 11 14 12 7 10 19 18 12 10 14 9 14 18 21 20 18 17
15 15 16 16 15 14 14 15 16 13 10 9 7 11 9 6 12 11 14 16 18 17 16 10 6 13 15 16 12 12 13 16 14 18 24 9 17 15 6 14 19 19 17 17 15
14 13 14 13 12 11 13 14 7 4 7 10 11 10 12 12 13 13 11 12 17 15 15 8 7 14 17 15 15 17 21 13 11 18 21 11 17 19 17 20 16 15 15 15 16
17 13 12 11 10 10 12 6 7 8 14 12 5 14 13 12 13 13 13 13 15 13 15 14 13 17 21 20 20 19 19 16 3 13 14 18 22 18 19 15 15 12 10 14 12
16 14 11 11 10 9 7 8 9 9 8 22 18 18 8 16 14 15 15 14 15 16 18 12 18 18 19 19 21 23 16 19 14 9 12 21 17 21 21 17 14 13 15 11 12
16 14 11 10 11 6 12 13 7 8 9 12 16 10 6 13 14 17 17 17 16 18 20 18 15 21 19 18 22 22 18 16 7 8 12 13 15 21 19 18 22 17 12 16 13
16 14 13 10 5 12 15 2 9 3 7 16 16 13 15 14 15 16 18 17 11 17 20 20 18 19 17 20 17 19 12 13 12 17 14 25 11 19 22 16 18 17 13 13 17
15 15 12 6 13 10 8 8 8 6 7 9 14 7 14 16 14 18 17 21 14 18 16 19 16 17 17 17 18 16 17 24 25 15 16 17 9 3 13 17 17 19 17 18 15
15 13 11 8 8 15 9 8 7 7 2 7 9 10 15 16 23 20 16 20 15 17 21 16 15 13 11 15 13 22 14 13 16 9 13 13 11 14 6 10 15 18 15 18 18
16 13 8 10 10 11 8 7 7 8 10 8 12 13 18 17 16 17 19 20 15 13 15 18 20 11 12 17 19 20 13 10 10 10 12 20 16 11 16 6 29 20 21 17 15
16 12 11 10 12 10 5 10 7 14 10 26 5 11 15 19 15 19 18 16 19 20 13 15 12 17 15 20 16 16 19 11 16 13 12 16 11 11 14 25 7 13 9 9 18
21 7 7 13 17 4 8 3 3 8 18 11 8 2 13 18 8 16 18 17 18 9 4 18 12 17 13 15 7 16 17 17 16 18 15 10 19 21 18 13 9 9 13 10 26
7 11 15 4 4 1 9 5 11 12 4 6 6 3 8 15 11 17 20 7 12 8 1 13 9 16 11 4 7 16 11 17 15 15 14 15 18 18 18 12 7 8 12 12 19
6 7 7 6 6 7 2 11 13 1 6 5 2 5 10 11 11 15 10 3 2 8 4 17 13 10 12 14 14 10 12 14 17 14 10 7 7 19 19 13 10 9 10 9 15
11 13 4 5 7 6 14 4 3 5 11 7 2 6 10 1 8 6 4 7 6 8 5 13 9 11 14 12 18 21 13 16 13 17 7 7 4 6 16 14 12 10 12 12 15
7 4 2 7 6 8 7 8 10 5 3 6 2 2 4 3 4 14 15 1 5 3 5 11 9 5 14 5 6 10 15 15 14 17 6 10 8 14 13 16 12 12 14 11 14
9 3 5 1 6 4 1 6 9 3 2 2 6 3 7 2 8 7 10 3 1 5 7 6 9 10 6 5 15 17 16 14 12 10 6 17 18 19 16 18 12 14 15 14 14
6 6 6 9 9 10 10 5 3 6 3 4 3 10 7 4 7 14 6 6 5 3 4 6 8 5 12 9 12 15 18 12 10 14 12 15 19 22 17 17 13 13 15 16 16
7 4 2 4 1 3 3 8 10 8 11 5 2 4 7 14 6 11 6 5 7 6 6 6 8 6 10 1 10 8 6 8 7 13 9 22 9 16 18 19 14 13 14 14 15
7 2 8 4 4 5 9 7 7 3 5 6 7 6 1 10 12 12 10 12 7 4 5 6 6 10 10 7 4 7 5 6 9 9 18 18 10 13 19 15 14 15 13 13 14
Wind_Direction
341 340 337 335 332 332 330 329 328 327 326 323 321 316 312 309 289 233 244 237 215 185 239 201 207 223 215 227 191 144 272 360 29 146 131 130 117 127 311 314 291 176 146 139 154
336 335 334 332 330 330 327 324 324 323 323 320 317 312 312 314 273 261 242 138 139 175 215 205 203 205 219 229 213 173 264 41 70 116 133 116 102 106 120 266 160 125 131 146 157
334 331 332 329 326 325 322 320 319 321 320 318 313 310 307 307 273 248 182 154 167 188 217 224 202 209 226 193 228 147 275 97 110 114 129 132 132 140 152 197 141 134 140 157 156
330 327 328 325 322 320 316 314 313 313 315 310 309 307 305 275 278 76 116 144 164 203 226 232 214 210 229 208 209 116 229 142 112 138 133 146 143 141 111 274 132 137 146 155 165
327 324 322 320 318 315 311 309 307 306 302 300 302 305 283 224 252 133 146 157 179 201 219 224 218 210 231 203 160 308 230 218 128 111 125 131 151 132 115 236 240 141 156 158 163
319 317 316 315 313 311 307 305 302 299 292 286 288 298 252 254 66 128 172 171 191 195 217 224 220 221 238 182 162 114 262 252 148 149 122 134 141 136 138 156 163 153 163 163 163
321 316 314 312 310 307 304 302 298 292 281 272 267 250 264 244 3 137 181 187 199 196 219 219 226 229 258 262 201 182 224 206 187 128 126 124 146 125 133 152 173 163 165 167 167
321 316 314 311 308 305 303 300 295 287 270 253 242 246 257 212 291 178 171 190 199 210 236 215 237 264 243 265 238 214 227 202 181 142 151 160 123 136 141 154 158 158 167 168 167
316 311 314 312 309 307 303 301 297 293 238 206 217 232 244 100 215 198 189 184 191 217 230 223 253 242 237 249 223 207 227 185 186 140 158 135 134 147 169 166 160 168 166 165 164
311 313 316 315 311 309 302 288 288 276 206 199 260 222 238 200 191 183 199 193 188 200 207 197 220 232 234 222 214 205 227 181 157 287 106 132 132 151 167 172 169 171 168 164 164
321 318 313 307 309 314 309 207 200 189 215 223 198 231 140 185 169 181 179 187 198 199 202 204 218 214 215 213 236 218 218 178 17 131 158 143 139 156 155 164 166 177 170 160 165
323 316 317 315 316 315 273 257 35 330 279 225 263 224 205 157 167 189 175 190 194 197 211 180 222 218 231 224 235 256 260 124 154 92 43 136 159 163 159 171 184 204 173 175 172
322 316 319 317 321 261 237 291 308 299 273 228 213 214 216 164 190 181 187 200 199 208 206 219 213 236 211 227 224 238 243 165 165 106 239 148 196 159 180 179 176 191 189 186 196
324 318 316 325 281 263 232 351 286 345 270 168 193 215 209 206 207 178 193 209 184 220 228 234 236 201 224 233 222 227 236 119 129 183 174 189 140 180 167 182 168 181 186 183 204
321 317 307 269 322 294 359 304 342 269 268 123 173 180 185 213 200 178 192 220 231 218 223 220 230 203 223 223 214 235 168 180 210 214 215 196 111 128 27 173 161 174 182 195 215
316 307 306 208 220 253 291 301 253 236 312 135 132 176 189 201 226 161 191 235 241 228 221 240 221 219 217 237 224 240 270 159 245 220 232 204 279 154 170 260 180 171 194 194 198
311 302 275 309 288 330 323 264 226 267 341 336 182 195 206 199 210 161 192 212 228 210 208 226 225 206 217 218 232 228 239 198 209 220 240 190 204 103 107 263 256 179 182 188 204
310 305 231 242 286 275 271 258 13 357 312 248 289 180 224 199 204 172 193 205 226 228 178 212 197 205 202 219 213 216 233 212 204 221 230 249 141 169 163 151 289 106 149 62 306
310 225 247 231 226 315 264 77 214 167 256 337 125 238 230 296 164 180 197 215 217 224 17 199 216 183 209 231 328 199 241 254 222 227 231 110 108 151 138 100 88 89 51 160 215
301 271 240 155 227 207 31 356 217 245 275 291 291 50 325 284 193 203 200 92 345 94 146 289 302 161 183 312 245 274 232 240 247 265 254 134 158 150 142 120 101 70 50 15 30
241 253 101 261 249 93 31 235 109 189 87 348 259 107 313 328 312 353 46 107 291 339 245 284 147 183 198 210 227 218 247 252 264 256 235 171 58 130 118 126 124 94 72 46 53
278 256 67 274 282 350 192 61 275 96 108 315 94 236 264 250 53 129 166 349 343 302 291 285 305 162 192 215 223 248 240 235 240 249 77 95 333 6 114 115 105 96 78 66 76
265 16 65 255 111 270 68 75 23 109 341 194 224 145 276 279 123 236 163 102 354 16 21 334 245 213 158 180 233 236 240 266 270 267 165 152 145 156 119 107 93 88 83 65 71
281 256 111 6 339 55 66 74 119 39 51 350 333 220 163 317 237 277 144 155 358 24 317 297 293 17 345 353 205 215 237 238 266 281 320 112 147 120 122 111 107 98 92 86 79
265 40 350 12 37 32 20 4 16 97 133 268 193 296 26 218 199 249 262 120 240 64 297 308 297 331 177 311 328 204 222 226 246 266 76 137 153 138 130 115 118 101 93 90 87
323 360 126 92 241 172 106 23 47 48 338 94 305 304 272 113 344 304 200 200 191 173 237 259 290 321 284 157 325 349 78 26 246 267 131 70 102 110 128 133 124 113 98 92 85
355 320 278 141 251 43 37 39 60 25 66 28 340 291 280 39 350 335 8 341 72 295 228 280 271 273 255 240 229 271 251 182 264 290 129 139 170 130 145 125 122 117 106 94 83